Theta_e
345 348 343 347 351 349 344 351 345 349 349 349 347 344 346 347 350 347 347 346 347 351 351 345 346 346 347 347 346 349 347 346 350 346 342 345 346 347 347 343 341 341 341
343 346 347 349 351 349 345 350 349 348 347 345 345 342 348 349 347 346 347 347 346 346 350 346 345 345 346 347 348 348 349 348 343 341 344 343 344 346 345 343 342 341 340
342 347 348 346 349 346 347 350 346 345 344 344 344 344 339 345 344 343 346 345 347 347 348 345 345 345 346 346 345 347 347 343 341 345 345 347 348 347 346 346 344 342 341
341 345 350 343 347 347 348 347 345 344 344 344 343 343 333 339 340 342 342 342 344 345 345 345 346 347 344 346 347 346 346 341 341 345 347 346 347 345 345 346 345 344 342
342 343 350 340 347 346 346 345 345 345 344 344 343 341 328 337 335 341 340 341 341 341 342 344 344 345 344 346 345 345 340 340 344 344 345 346 346 344 342 346 345 340 340
342 343 347 343 347 347 347 346 345 345 343 343 342 335 337 341 330 339 341 340 339 339 341 341 344 345 344 344 344 344 341 341 345 341 344 345 346 342 340 339 341 342 343
342 343 345 343 349 348 347 347 346 345 344 343 337 333 338 340 333 338 338 337 336 338 340 340 342 344 345 343 345 345 341 341 344 340 338 341 343 340 339 339 340 342 342
342 342 345 341 344 347 347 347 345 345 344 342 338 336 336 339 337 329 326 330 332 332 336 334 341 344 344 342 344 343 342 340 342 338 338 338 335 335 342 338 337 338 342
343 343 343 346 349 345 346 345 345 344 344 343 341 339 336 335 336 333 328 324 325 327 327 331 339 340 343 340 343 342 342 338 341 339 337 339 331 342 342 339 337 337 339
345 345 343 342 344 350 350 348 347 343 344 343 343 340 336 332 330 327 326 331 323 326 326 326 337 338 340 340 341 341 341 340 339 338 337 338 331 338 338 340 340 337 338
344 345 344 342 342 347 349 350 349 347 344 343 342 341 339 337 336 334 333 330 322 316 320 320 332 336 335 337 336 335 337 341 340 336 336 337 334 335 333 333 336 338 339
331 331 331 334 340 346 348 348 348 348 349 347 345 343 342 338 337 333 330 325 320 317 313 314 311 327 332 331 337 334 334 337 339 338 336 336 336 333 331 329 330 334 336
325 325 325 328 332 335 346 348 348 349 346 347 345 343 342 340 338 336 333 332 331 330 329 327 326 322 321 323 325 327 329 331 334 334 334 335 335 333 332 330 329 331 335
320 320 321 323 328 336 336 348 346 345 345 344 345 344 344 343 341 339 335 332 328 327 325 323 322 321 321 319 319 322 324 328 330 331 333 334 333 333 332 329 325 329 331
315 315 316 318 322 327 334 341 342 341 341 343 344 344 342 342 341 341 340 336 332 328 325 323 320 319 318 317 316 316 318 322 327 329 331 332 331 331 331 329 322 328 329
311 311 310 311 313 317 320 323 326 330 334 334 336 338 339 341 342 341 340 340 338 333 328 325 321 318 317 315 315 314 314 316 321 324 326 328 326 326 325 328 327 327 330
310 309 309 308 309 309 310 312 313 315 318 321 322 324 324 327 331 335 337 337 337 338 334 328 323 319 317 316 314 313 313 313 316 319 322 322 323 319 317 324 324 323 325
310 309 309 309 309 309 309 309 309 310 310 311 312 314 315 316 318 322 330 331 332 333 333 330 326 322 319 317 316 314 313 312 312 315 317 319 318 318 316 311 319 320 321
309 309 309 309 308 308 309 308 308 308 308 308 309 309 308 310 311 312 316 320 326 327 328 330 330 327 322 319 317 316 315 313 312 312 314 315 316 315 315 316 310 313 318
308 308 308 308 308 308 308 308 308 308 307 307 307 307 307 308 309 310 310 312 315 319 324 324 326 329 328 321 319 318 316 314 313 312 312 313 314 314 313 314 315 311 311
308 308 307 307 307 307 307 307 306 306 306 307 307 307 307 307 307 307 309 309 310 311 314 319 321 324 325 327 321 319 318 316 315 313 312 312 312 313 314 313 315 314 313
308 308 307 307 306 306 306 306 306 306 305 306 306 306 306 306 306 306 307 308 309 309 310 312 315 319 321 322 324 321 320 320 317 316 314 313 312 312 313 314 314 314 313
308 308 307 307 306 306 306 306 305 305 305 305 306 306 306 306 305 305 306 307 307 307 308 309 311 313 318 319 319 320 321 320 322 319 317 314 313 312 312 312 313 313 312
308 308 307 307 306 306 305 305 305 305 305 305 305 305 305 305 305 305 305 306 306 306 306 306 307 309 311 315 316 316 317 315 319 323 319 317 315 314 313 312 312 312 312
307 307 307 307 306 305 304 304 303 303 304 304 304 304 304 305 305 305 305 305 305 305 305 305 305 306 308 309 312 314 316 315 314 314 314 318 315 314 313 312 311 312 311
307 307 307 306 304 304 303 303 302 303 303 303 303 303 304 304 305 304 304 305 305 305 305 304 305 306 306 308 309 311 313 314 312 313 313 313 314 313 311 312 311 311 311
Wind_Speed
5 10 12 10 7 6 5 5 8 7 8 9 10 10 11 10 12 11 11 10 11 10 10 10 10 10 9 10 11 11 12 13 14 14 15 16 15 14 16 16 16 16 16
11 10 11 9 8 5 4 5 7 7 5 6 8 8 9 10 10 10 10 10 11 11 10 10 10 8 7 8 10 10 11 11 13 12 13 15 14 13 14 14 16 15 14
11 11 10 9 7 5 2 6 4 5 5 5 6 7 5 6 7 7 8 9 9 10 9 10 8 7 7 7 7 9 9 10 11 9 7 11 11 12 12 12 14 13 13
9 9 9 10 7 7 5 3 3 2 2 3 4 4 4 3 2 6 7 6 7 7 8 7 6 6 6 5 7 7 7 9 9 7 4 12 9 9 10 10 11 11 12
8 8 9 10 9 8 5 4 2 1 2 1 1 4 3 1 1 4 2 3 5 6 5 6 5 5 4 3 3 5 6 8 9 8 7 8 6 7 8 8 9 9 9
7 7 6 8 6 7 3 2 1 3 3 4 5 4 1 1 1 4 2 3 3 2 2 2 4 4 5 2 1 4 5 7 7 5 6 7 9 5 6 6 6 7 8
8 7 5 5 5 3 2 2 2 3 4 4 3 3 1 2 3 4 4 4 6 5 4 4 2 2 2 3 2 5 5 4 5 3 4 4 8 5 4 4 5 5 5
8 6 5 3 3 2 3 3 3 4 4 5 4 3 2 2 4 3 4 5 4 4 6 6 4 2 1 0 2 5 4 3 3 0 1 2 4 2 1 2 2 2 2
6 5 4 5 2 2 3 3 3 4 5 7 4 5 4 4 4 5 4 4 4 5 6 3 4 3 2 2 5 5 5 4 1 1 2 3 5 4 0 1 1 0 1
4 2 0 2 4 2 4 7 5 5 6 7 7 7 7 7 6 7 7 6 6 4 5 4 6 6 5 4 5 5 6 5 5 4 4 2 1 2 4 5 3 1 2
4 3 2 4 6 4 6 8 7 5 5 8 8 7 7 6 6 5 7 12 12 7 6 5 9 10 9 8 7 9 8 7 7 7 6 5 4 2 1 0 1 2 3
7 7 9 11 13 12 8 4 5 3 8 7 7 6 6 6 7 7 8 13 12 10 9 7 7 14 13 10 11 10 11 11 10 9 6 8 8 5 5 4 4 2 1
9 10 12 11 10 11 10 9 9 8 10 12 12 9 7 7 8 8 8 7 7 10 7 10 7 5 7 10 10 11 10 11 12 11 13 11 10 8 8 7 7 5 4
12 14 15 15 12 10 6 7 11 13 15 15 13 13 13 10 9 9 10 9 9 10 10 10 10 10 10 10 11 11 12 12 12 11 12 15 14 11 9 8 8 8 7
14 15 16 17 17 15 11 9 10 10 10 11 13 13 11 13 14 17 12 11 11 11 12 13 12 12 12 12 12 13 13 13 13 12 9 11 13 13 10 8 8 8 9
13 15 15 18 17 16 16 14 13 12 11 13 12 13 13 15 17 18 15 15 14 13 14 14 14 14 14 14 14 14 14 14 14 14 13 12 14 16 13 11 9 8 8
13 14 15 16 16 16 15 14 13 13 12 12 12 12 14 15 16 17 18 20 19 17 15 16 16 16 16 15 16 15 15 15 16 15 15 14 12 15 16 14 12 11 10
10 12 13 14 16 16 16 14 13 13 12 12 12 11 12 13 12 13 14 16 18 17 21 21 17 17 17 17 18 17 18 17 16 17 16 16 16 13 14 18 15 14 13
8 9 11 12 15 15 14 14 14 14 14 13 13 13 15 14 14 14 13 13 13 16 18 19 19 19 19 18 19 20 19 19 19 18 19 19 18 17 15 14 17 17 15
6 7 9 12 14 14 14 14 14 15 15 15 16 15 16 16 15 16 16 15 14 14 13 17 23 24 22 21 22 21 21 21 21 20 21 21 21 22 21 15 16 20 19
3 6 9 11 14 16 16 17 18 18 18 18 17 16 17 18 17 18 17 16 16 16 15 15 16 19 27 21 19 22 23 24 25 24 24 22 23 23 22 22 19 16 18
4 5 9 11 13 14 14 15 16 19 20 21 21 20 20 20 19 19 18 18 18 18 17 16 15 16 19 23 16 16 10 19 27 27 25 25 25 24 24 24 23 22 19
7 7 9 10 12 14 14 16 18 21 22 22 21 22 22 21 23 23 22 21 20 20 19 18 17 17 16 17 22 9 4 6 6 23 29 26 25 24 25 24 25 24 23
10 8 10 11 14 15 18 20 22 23 23 23 25 25 27 25 25 24 25 24 24 22 22 21 21 20 17 18 15 22 31 15 3 4 4 18 25 24 25 24 25 26 26
9 8 10 12 15 18 21 23 23 24 24 26 26 28 28 29 28 28 27 26 25 24 23 23 23 23 22 22 18 16 18 23 21 10 5 8 17 20 24 24 24 25 27
5 7 10 14 17 21 23 25 25 26 29 29 29 30 28 27 27 28 29 28 26 26 25 23 24 23 24 24 23 19 18 14 12 12 11 13 14 15 23 22 24 24 25
Wind_Direction
132 152 155 152 124 143 127 112 82 80 77 73 55 42 41 36 39 43 42 44 47 48 56 61 58 59 57 61 70 78 86 90 90 87 89 86 79 76 73 78 66 65 67
143 147 150 150 137 155 125 95 84 78 66 42 42 38 42 49 41 41 33 40 44 48 56 56 66 59 67 67 68 74 84 94 96 90 87 80 73 76 75 77 76 71 68
134 142 144 146 138 129 82 118 90 78 19 39 27 26 27 40 50 51 39 31 42 43 54 59 71 73 71 77 85 85 92 95 94 92 99 98 84 70 69 79 75 76 73
132 136 146 150 151 126 144 111 111 94 73 19 13 1 7 14 29 50 46 10 35 47 57 64 64 65 75 82 86 92 94 96 88 54 3 74 78 78 71 73 75 77 76
126 134 165 160 166 154 163 165 163 167 222 220 289 317 342 19 311 105 83 18 21 18 41 43 60 55 58 74 99 106 100 93 73 46 44 47 77 77 75 74 72 76 83
124 133 162 161 165 171 184 211 216 267 284 276 286 315 352 290 317 161 193 209 248 287 360 0 23 38 37 51 136 150 126 98 56 49 59 59 89 62 58 67 73 75 80
110 118 134 156 163 196 220 245 266 299 301 302 312 320 310 304 320 221 238 255 271 244 238 259 268 9 29 34 104 169 146 109 89 65 59 52 65 59 63 42 56 73 77
107 110 116 160 164 200 242 250 276 280 291 292 295 293 284 286 304 309 272 275 286 274 275 280 221 345 236 202 173 190 172 145 295 317 29 15 346 357 25 29 44 73 105
105 110 120 147 172 124 258 269 244 282 281 284 270 274 273 267 275 291 299 289 281 276 280 251 225 249 218 196 188 203 206 197 338 282 281 110 42 77 203 308 358 315 169
109 96 356 137 185 156 269 275 269 258 255 279 257 260 267 277 291 286 323 295 305 293 294 256 231 254 240 224 211 214 223 222 257 244 248 220 4 75 70 86 83 217 228
2 345 290 281 287 231 238 239 267 267 267 268 285 274 280 260 252 259 258 274 281 283 279 271 230 240 244 252 254 265 249 248 252 243 242 221 238 186 238 286 66 75 84
18 1 343 328 321 325 331 296 309 281 263 244 242 220 258 263 262 246 256 280 278 273 276 278 255 239 250 248 249 267 256 245 242 255 240 229 239 219 239 242 259 253 242
32 22 10 350 328 311 292 289 309 314 297 300 311 291 262 273 276 274 268 270 278 276 261 268 270 257 240 246 253 253 248 244 243 241 240 257 249 228 237 240 244 244 234
44 35 27 21 14 357 320 327 314 302 297 296 304 311 306 293 275 277 276 275 271 264 264 251 249 243 242 239 243 249 249 246 244 245 243 238 251 237 232 239 232 227 221
47 41 35 33 33 31 24 7 349 340 330 318 297 300 303 301 290 293 283 275 274 271 269 267 259 253 246 244 242 241 244 244 242 242 242 244 253 235 225 231 231 212 221
50 44 40 38 36 36 37 34 28 14 1 353 334 316 313 292 295 294 293 291 280 276 274 269 265 260 257 250 248 245 243 240 238 235 232 248 254 237 229 221 225 219 212
56 49 42 37 33 33 30 27 25 19 14 12 9 4 357 340 314 299 285 277 275 285 296 274 267 267 261 257 253 249 244 243 239 234 229 229 244 241 232 223 221 218 214
53 48 40 33 28 24 22 19 14 9 5 360 356 352 350 347 346 328 311 301 294 280 269 270 277 266 261 261 256 249 247 240 238 235 231 227 227 229 239 232 223 219 216
45 35 32 26 20 16 12 9 3 358 354 350 343 339 335 332 331 328 321 311 299 298 283 263 265 264 266 257 256 255 247 239 237 233 230 227 226 225 225 242 231 223 216
35 29 21 15 9 5 0 357 351 346 342 338 334 330 329 326 320 318 315 310 309 303 288 292 276 262 266 260 260 255 248 243 237 234 232 226 224 225 220 220 232 227 220
9 8 5 3 358 355 350 348 343 337 332 327 323 319 320 321 319 316 308 304 304 302 298 292 283 282 275 269 258 265 257 252 238 231 231 228 224 219 220 215 215 220 229
310 337 342 346 344 341 336 329 325 321 318 312 309 307 310 312 312 308 303 298 297 295 293 291 284 279 280 267 280 266 259 250 237 235 224 226 225 218 216 216 214 214 213
281 304 311 315 321 327 325 320 316 314 309 307 305 304 300 298 300 300 298 294 292 291 291 290 284 279 269 270 260 260 270 253 271 221 228 223 224 222 216 217 217 216 214
279 273 285 299 310 316 319 317 312 310 304 303 301 297 295 290 291 290 288 286 287 288 286 284 281 274 268 264 260 257 250 265 312 327 278 240 217 227 223 216 216 218 215
286 283 292 296 304 312 313 310 307 302 300 298 295 297 293 290 287 288 284 283 282 283 283 286 287 284 277 277 260 252 252 246 245 253 290 263 245 235 227 221 218 218 217
286 281 291 301 306 310 309 307 306 304 301 300 298 294 292 289 285 282 282 280 277 274 279 285 282 277 277 270 271 265 236 240 234 228 242 257 279 226 224 220 219 216 215